Hemavan current weather conditions

sailwx.info

Wind from 120 at 2 knots

Air temperature 2.0° C
Visibility: greater than 5.4 NM
Dewpoint -0.0° C

Last reported at 2016-Dec-07 12:20 UTC.
Time now 2016-Dec-07 14:34 UTC

Location: N 65°48' E 015°05'.
View on Google Maps.

See reports from other nearby stations

  
Tides and Currents Weather Stations Pressure Air Temp Water Temp Dewpoint Dewpoint Depression Visibility Wind Speed Wind Dir Waves Ship Positions
date/time (UTC)wind fromknots sea level pressurealtimeterstation pressurevisibilityair tempwater tempwave heightnotes
2016-Dec-07 13:20 5.4 2.0
2016-Dec-07 12:50 5.4 2.0
2016-Dec-07 12:20 120 2 5.4 2.0
2016-Dec-07 11:50 5.4 2.0
2016-Dec-07 11:20 310 2 5.4 2.0
2016-Dec-07 10:50 280 6 5.4 2.0
2016-Dec-07 10:20 280 6 5.4 2.0
2016-Dec-07 09:50 290 8 5.4 2.0
2016-Dec-07 09:20 300 11 5.4 2.0
2016-Dec-07 08:50 310 12 5.4 2.0
2016-Dec-07 08:20 290 11 5.4 2.0
2016-Dec-07 07:50 310 12 3.8 2.0 Drizzle.
2016-Dec-07 07:20 300 13 5.4 2.0
2016-Dec-07 06:50 290 13 5.4 2.0
2016-Dec-07 06:20 290 13 5.4 3.0
2016-Dec-07 05:50 310 14 5.4 2.0
2016-Dec-07 05:20 290 13 5.4 2.0
2016-Dec-07 04:50 290 12 5.4 3.0
2016-Dec-07 04:20 310 14 5.4 3.0
2016-Dec-07 03:50 330 18 5.4 3.0 Precipitation.
2016-Dec-07 03:20 350 9 5.4 3.0 Light drizzle.
2016-Dec-07 02:50 350 13 5.4 2.0
2016-Dec-07 02:20 310 7 2.4 2.0 Rain.
2016-Dec-07 01:50 350 6 5.4 2.0 Light rain.
2016-Dec-07 01:20 060 4 5.4 2.0
2016-Dec-07 00:50 080 5 5.4 2.0
2016-Dec-07 00:20 290 4 5.4 2.0 Light drizzle.
2016-Dec-06 23:50 5.4 2.0 Light drizzle.
2016-Dec-06 23:20 290 6 5.4 2.0 Light drizzle.
2016-Dec-06 22:50 280 6 5.4 3.0 Drizzle.
2016-Dec-06 22:20 280 6 5.4 3.0
2016-Dec-06 21:50 290 14 5.4 3.0 Light drizzle.
2016-Dec-06 21:20 280 9 5.4 2.0 Light drizzle.
2016-Dec-06 20:50 290 12 3.2 2.0 Light drizzle.
2016-Dec-06 20:20 290 8 5.4 2.0 Drizzle.
2016-Dec-06 19:50 5.4 2.0 Drizzle.
2016-Dec-06 19:20 300 7 gusting 20 5.4 3.0 Drizzle.
2016-Dec-06 18:50 100 2 5.4 2.0 Light rain.
2016-Dec-06 18:20 5.4 1.0 Snow grains.
2016-Dec-06 17:50 130 4 2.7 1.0 Light rain snow.
2016-Dec-06 17:20 110 5 2.3-0.0 Light snow.
2016-Dec-06 16:50 150 2 1.5-1.0 Light snow.
2016-Dec-06 16:20 2.3-1.0 Light snow.
2016-Dec-06 15:50 280 2 1.3-1.0 Light rain snow.
2016-Dec-06 15:20 220 1 0.7-2.0 Light snow.
2016-Dec-06 14:50 080 2 0.9-2.0 Light snow.
2016-Dec-06 14:20 100 4 2.3-2.0 Light snow.
2016-Dec-06 13:50 150 2 2.6-3.0 Light snow.
2016-Dec-06 13:20 140 1 1.7-3.0 Light ice pellets.
2016-Dec-06 12:50 3.2-3.0 Precipitation.
2016-Dec-06 12:20 4.3-3.0 Precipitation.
2016-Dec-06 11:50 2.7-4.0 Light snow.
2016-Dec-06 11:20 170 4 5.4-4.0 Light snow.
2016-Dec-06 10:50 5.4-3.0 Snow grains.
2016-Dec-06 10:20 5.4-4.0
2016-Dec-06 09:50 5.4-5.0
2016-Dec-06 09:20 5.4-6.0
2016-Dec-06 08:50 170 2 5.4-6.0
2016-Dec-06 08:20 150 1 5.4-7.0
2016-Dec-06 07:50 5.4-8.0
2016-Dec-06 07:20 5.4-8.0
2016-Dec-06 06:50 5.4-8.0
2016-Dec-06 06:20 5.4-7.0
2016-Dec-06 05:50 130 2 5.4-6.0
2016-Dec-06 05:20 5.4-7.0
2016-Dec-06 04:50 5.4-6.0
2016-Dec-06 04:20 5.4-5.0
2016-Dec-06 03:50 130 1 5.4-4.0 Snow grains.
2016-Dec-06 03:20 050 1 5.4-4.0
2016-Dec-06 02:50 150 4 5.4-3.0
2016-Dec-06 02:20 5.4-5.0
2016-Dec-06 01:50 020 4 5.4-6.0
2016-Dec-06 01:20 5.4-5.0
2016-Dec-06 00:50 340 5 5.4-3.0
2016-Dec-06 00:20 5.4-2.0
2016-Dec-05 23:50 5.4-2.0
2016-Dec-05 23:20 290 6 5.4-2.0
2016-Dec-05 22:50 5.4-2.0
2016-Dec-05 22:20 5.4-4.0
2016-Dec-05 21:50 340 7 5.4-2.0
2016-Dec-05 21:20 350 7 5.4-2.0
2016-Dec-05 20:50 330 13 5.4-1.0
2016-Dec-05 20:20 360 6 5.4-2.0
2016-Dec-05 19:50 350 6 5.4-2.0 Precipitation.
2016-Dec-05 19:20 340 6 5.4-2.0
2016-Dec-05 18:50 340 5 5.4-1.0
2016-Dec-05 18:20 290 6 5.4-1.0
2016-Dec-05 17:50 010 4 5.4-1.0
2016-Dec-05 17:20 310 6 5.4-1.0
2016-Dec-05 16:50 340 7 5.4-1.0
2016-Dec-05 16:20 340 6 5.4-2.0
2016-Dec-05 15:50 310 8 5.4-1.0
2016-Dec-05 15:20 320 8 5.4-2.0
2016-Dec-05 14:50 320 7 5.4-1.0
2016-Dec-05 14:20 310 7 5.4-1.0